This is the latest recevied weather packets stored in our database for station/object W0AVQ. If no packets are shown the sender has not sent any weather packets the latest 1 day(s).
| Time | Temp. | Humidity | Pressure | Rain* | Wind** | Luminosity | Snow |
|---|---|---|---|---|---|---|---|
| 1778028731 | 11.11° C | 99% | 1009.2 hPa | 1.27 mm | - | 0 W/m² | - |
| 1778028427 | 11.67° C | 99% | 1009.1 hPa | 1.27 mm | - | 0 W/m² | - |
| 1778028125 | 11.11° C | 99% | 1009.4 hPa | 0 mm | - | 0 W/m² | - |
| 1778027517 | 11.11° C | 99% | 1008.8 hPa | 0 mm | - | 0 W/m² | - |
| 1778027213 | 11.11° C | 99% | 1008.7 hPa | 0 mm | - | 2 W/m² | - |
| 1778026605 | 11.11° C | 99% | 1008.7 hPa | 0 mm | - | 4 W/m² | - |
| 1778026303 | 11.11° C | 99% | 1008.7 hPa | 0 mm | - | 6 W/m² | - |
| 1778026000 | 11.67° C | 99% | 1008.7 hPa | 0 mm | - | 3 W/m² | - |
| 1778025697 | 11.67° C | 99% | 1008.7 hPa | 1.78 mm | - | 8 W/m² | - |
| 1778025092 | 11.67° C | 99% | 1009.1 hPa | 3.05 mm | - | 5 W/m² | - |
| 1778023578 | 11.67° C | 99% | 1009.2 hPa | 0 mm | - | 3 W/m² | - |
| 1778021761 | 11.67° C | 99% | 1008.7 hPa | 0 mm | - | 48 W/m² | - |
| 1778021457 | 11.67° C | 99% | 1008.7 hPa | 0 mm | - | 46 W/m² | - |
| 1778021154 | 11.67° C | 99% | 1008.5 hPa | 0 mm | - | 44 W/m² | - |
| 1778019941 | 11.67° C | 99% | 1009.9 hPa | 0 mm | - | 38 W/m² | - |
| 1778018728 | 12.22° C | 99% | 1009.5 hPa | 0 mm | - | 42 W/m² | - |
| 1778018426 | 12.22° C | 99% | 1009.3 hPa | 0 mm | - | 40 W/m² | - |
| 1778018124 | 12.22° C | 99% | 1009.3 hPa | 0 mm | - | 42 W/m² | - |
| 1778017216 | 12.22° C | 99% | 1009.7 hPa | 0 mm | - | 75 W/m² | - |
| 1778016914 | 12.22° C | 99% | 1009.5 hPa | 0 mm | - | 67 W/m² | - |
| 1778015701 | 12.78° C | 99% | 1009.6 hPa | 1.27 mm | - | 38 W/m² | - |
| 1778015094 | 13.33° C | 99% | 1009.6 hPa | 3.05 mm | - | 44 W/m² | - |
* Rain latest hour (hover to see other rain measurements)
** Current wind speed in m/s (hover to see current wind gust speed)